This is the latest recevied weather packets stored in our database for station/object K4VEB. If no packets are shown the sender has not sent any weather packets the latest 10 day(s).
| Time | Temp. | Humidity | Pressure | Rain* | Wind** | Luminosity | Snow |
|---|---|---|---|---|---|---|---|
| 1777899554 | 21.11° C | 73% | 1017.3 hPa | 0 mm | - | 270 W/m² | - |
| 1777899252 | 20.56° C | 76% | 1017.5 hPa | 0 mm | - | 250 W/m² | - |
| 1777898949 | 20.56° C | 76% | 1017.3 hPa | 0 mm | - | 236 W/m² | - |
| 1777898646 | 20° C | 79% | 1017.3 hPa | 0 mm | - | 217 W/m² | - |
| 1777898343 | 20° C | 79% | 1017.5 hPa | 0 mm | - | 203 W/m² | - |
| 1777898041 | 19.44° C | 80% | 1017.3 hPa | 0 mm | - | 184 W/m² | - |
| 1777897737 | 19.44° C | 81% | 1017.4 hPa | 0 mm | - | 171 W/m² | - |
| 1777897433 | 18.89° C | 82% | 1017.5 hPa | 0 mm | - | 132 W/m² | - |
| 1777897129 | 18.89° C | 83% | 1017.2 hPa | 0 mm | - | 109 W/m² | - |
| 1777896826 | 18.89° C | 84% | 1017.2 hPa | 0 mm | - | 90 W/m² | - |
| 1777896523 | 18.33° C | 86% | 1017.1 hPa | 0 mm | - | 82 W/m² | - |
| 1777896220 | 18.33° C | 89% | 1017.2 hPa | 0 mm | - | 73 W/m² | - |
| 1777895918 | 17.78° C | 91% | 1017.2 hPa | 0 mm | - | 68 W/m² | - |
| 1777895615 | 17.22° C | 93% | 1017 hPa | 0 mm | - | 61 W/m² | - |
| 1777895312 | 16.67° C | 94% | 1017.2 hPa | 0 mm | - | 55 W/m² | - |
| 1777895011 | 16.11° C | 94% | 1017.1 hPa | 0 mm | - | 34 W/m² | - |
| 1777894708 | 16.11° C | 94% | 1016.9 hPa | 0 mm | - | 30 W/m² | - |
| 1777894404 | 15.56° C | 94% | 1017.1 hPa | 0 mm | - | 27 W/m² | - |
| 1777894102 | 15.56° C | 94% | 1017 hPa | 0 mm | - | 26 W/m² | - |
| 1777893799 | 15° C | 94% | 1016.9 hPa | 0 mm | - | 23 W/m² | - |
| 1777893495 | 15° C | 94% | 1016.7 hPa | 0 mm | - | 21 W/m² | - |
| 1777893191 | 15° C | 93% | 1016.8 hPa | 0 mm | - | 17 W/m² | - |
| 1777892888 | 15° C | 93% | 1016.7 hPa | 0 mm | - | 15 W/m² | - |
| 1777892584 | 15° C | 93% | 1016.8 hPa | 0 mm | - | 12 W/m² | - |
| 1777892280 | 15° C | 93% | 1016.7 hPa | 0 mm | - | 8 W/m² | - |
* Rain latest hour (hover to see other rain measurements)
** Current wind speed in m/s (hover to see current wind gust speed)